{"data":{"norad_id":53999,"intl_designator":"2022-125AM","name":"STARLINK-5079","alt_names":[],"object_type":"PAYLOAD","status":"ACTIVE","operator":null,"country":"US","launch_date":"2022-10-05","launch_site_code":"AFWTR","launch_vehicle":null,"mission":null,"orbit_class":"UNKNOWN","rcs_meters":null,"size_class":null,"mass_kg":null,"dimensions":null,"purposes":["comms"],"wikipedia_slug":null,"has_3d_model":false,"image_url":null,"decayed_at":null,"tle_current":{"epoch":"2026-05-24T22:21:38.785824Z","epoch_age_seconds":81745,"freshness":"FRESH","line1":"1 53999U 22125AM  26144.93169891 -.00000391  00000+0 -64975-5 0  9990","line2":"2 53999  53.2161 231.7737 0001242  85.3625 274.7509 15.08835529200971","mean_motion":15.08835529,"eccentricity":0.0001242,"inclination_deg":53.2161,"raan_deg":231.7737,"arg_perigee_deg":85.3625,"mean_anomaly_deg":274.7509,"bstar":-6.4975e-6,"rev_number":20097,"period_min":95.437837479502,"perigee_km":538.89785261456,"apogee_km":540.61625749784,"semimajor_km":6917.8940550562,"source":"CELESTRAK","updated_at":"2026-05-25T13:38:17.623797Z"}}}